Flag for Australia Weather past 2 weeks in Brisbane, Queensland, Australia

Now
68 °F

Scattered showers. Passing clouds.


Feels Like: 68 °F
Forecast: 61 / 73 °F
Wind: 7 mph from Southeast

Location: Brisbane Airport M. O

Current Time: Oct 21, 2014 at 4:27:29 AM

Latest Report: Oct 21, 2014 at 4:00 AM


Visibility: N/A

Pressure: 30.24 "Hg

Humidity: 78%

Dew point: 61 °F

Location of BrisbaneLocation

Historic Weather in Brisbane — Graph

°F

Brisbane temperature yesterday

Maximum temperature yesterday: 75 °F (at 11:30 AM)
Minimum temperature yesterday: 57 °F (at 3:00 AM)
Average temperature yesterday: 68 °F

Past Weeks' High & Low Weather Summary

 TemperatureHumidityPressure
High82 °F (Oct 14, 12:30 PM)100% (Oct 8, 5:00 AM)30.33 "Hg (Oct 8, 5:00 AM)
Low54 °F (Oct 15, 4:30 AM)14% (Oct 14, 5:00 PM)29.74 "Hg (Oct 14, 2:00 PM)
Average69 °F62%30.06 "Hg
* Reported Oct 6 3:00 AM — Oct 21 3:00 AM, Brisbane, Weather by CustomWeather, © 2014

Note: Actual official high and low records may vary slightly from our data, if they occured in-between our weather recording intervals... More about our weather records

Advertising

Brisbane weather history for previous 24 hours

 ConditionsComfort  
Time TempWeatherWind HumidityBarometerVisibility
3:00 AM
Oct 21
66 °FScattered showers. Partly cloudy.5 mph78%30.27 "HgN/A
2:30 AM64 °FPassing clouds.5 mph78%30.27 "HgN/A
2:00 AM64 °FPassing clouds.2 mph78%30.27 "HgN/A
1:30 AM64 °FPassing clouds.3 mph78%30.27 "HgN/A
1:00 AM64 °FPassing clouds.5 mph78%30.27 "HgN/A
12:30 AM64 °FPassing clouds.6 mph73%30.30 "HgN/A
12:00 AM64 °FPassing clouds.6 mph73%30.30 "HgN/A
11:30 PM
Oct 20
64 °FPassing clouds.7 mph73%30.30 "HgN/A
11:00 PM66 °FPassing clouds.3 mph68%30.30 "HgN/A
10:30 PM66 °FPassing clouds.6 mph68%30.30 "HgN/A
10:00 PM68 °FPassing clouds.7 mph69%30.30 "HgN/A
9:30 PM68 °FPassing clouds.6 mph64%30.30 "HgN/A
9:00 PM68 °FPassing clouds.7 mph64%30.30 "HgN/A
8:30 PM70 °FPassing clouds.6 mph60%30.30 "HgN/A
8:00 PM70 °FClear.7 mph60%30.30 "Hg10 mi
7:30 PM70 °FClear.6 mph60%30.27 "Hg10 mi
7:00 PM70 °FClear.6 mph60%30.27 "Hg10 mi
6:30 PM70 °FClear.7 mph60%30.24 "Hg10 mi
6:00 PM70 °FClear.8 mph60%30.21 "Hg10 mi
5:30 PM72 °FSunny.8 mph57%30.21 "Hg10 mi
5:00 PM72 °FSunny.8 mph57%30.18 "Hg10 mi
4:00 PM73 °FPassing clouds.10 mph53%30.18 "HgN/A
3:30 PM73 °FPassing clouds.13 mph53%30.18 "HgN/A
3:00 PM73 °FPassing clouds.13 mph53%30.15 "HgN/A
1:00 PM75 °FPassing clouds.13 mph44%30.18 "HgN/A
12:30 PM73 °FPassing clouds.13 mph50%30.21 "HgN/A
12:00 PM73 °FPassing clouds.12 mph50%30.21 "HgN/A
11:30 AM75 °FPassing clouds.12 mph47%30.24 "HgN/A
11:00 AM73 °FPassing clouds.12 mph47%30.24 "HgN/A
10:30 AM73 °FPassing clouds.10 mph50%30.27 "HgN/A
10:00 AM72 °FPassing clouds.9 mph53%30.27 "HgN/A
9:30 AM73 °FPassing clouds.9 mph50%30.27 "HgN/A
9:00 AM72 °FPassing clouds.8 mph57%30.27 "HgN/A
8:30 AM72 °FPassing clouds.8 mph53%30.27 "HgN/A
8:00 AM70 °FPassing clouds.5 mph57%30.27 "HgN/A
7:30 AM68 °FPassing clouds.7 mph60%30.27 "HgN/A
7:00 AM64 °FPassing clouds.8 mph68%30.27 "HgN/A
6:30 AM63 °FPassing clouds.7 mph73%30.27 "HgN/A
6:00 AM59 °FPassing clouds.9 mph82%30.27 "HgN/A
5:30 AM57 °FPassing clouds.8 mph82%30.24 "HgN/A
5:00 AM59 °FPassing clouds.8 mph82%30.24 "HgN/A
4:30 AM57 °FPassing clouds.7 mph88%30.24 "HgN/A
4:00 AM59 °FPassing clouds.8 mph82%30.24 "HgN/A
Weather by CustomWeather, © 2014

See weather overviewHow to use our weather pages